When you browse on this site, cookies collect data to enhance your experience and personalize the content and advertising you see.
Visit our Privacy Policy to learn more. By continuing to use the site, you agree to this use of cookies and data.
  • In Deutschland
  • Länderverzeichnis
  • Für 7 Tage
  • Wassertemperatur
  • Satellitenkarten
  • Wetterkarte
  • Widgets
  • user-avatar
    Anmelden

    Stündliche Wetter Vanadzor

    Heute, 15 Juli, Montag

    Zeit Temperatur Niederschläge Wind Luftdruck Luftfeuchtigkeit
    00:00 +13°C° 0 mm 1 m/S 632 mmHg 93%
    01:00 +13°C° 0 mm 1 m/S 631 mmHg 93%
    02:00 +13°C° 0 mm 1 m/S 631 mmHg 94%
    03:00 +13°C° 0 mm 1 m/S 631 mmHg 95%
    04:00 +13°C° 0 mm 1 m/S 631 mmHg 94%
    05:00 +14°C° 0 mm 1 m/S 631 mmHg 93%
    06:00 +14°C° 0 mm 1 m/S 631 mmHg 92%
    07:00 +16°C° 0 mm 1 m/S 632 mmHg 89%
    08:00 +17°C° 0 mm 2 m/S 632 mmHg 86%
    09:00 +19°C° 0 mm 2 m/S 632 mmHg 83%
    10:00 +20°C° 0 mm 2 m/S 632 mmHg 79%
    11:00 +21°C° 0 mm 2 m/S 632 mmHg 75%
    12:00 +23°C° 0 mm 2 m/S 633 mmHg 71%
    13:00 +23°C° 0.1 mm 2 m/S 632 mmHg 71%
    14:00 +23°C° 0.1 mm 2 m/S 632 mmHg 71%
    15:00 +23°C° 0 mm 2 m/S 631 mmHg 71%
    16:00 +21°C° 0.1 mm 2 m/S 631 mmHg 76%
    17:00 +20°C° 0.1 mm 2 m/S 631 mmHg 81%
    18:00 +20°C° 0.1 mm 2 m/S 630 mmHg 86%
    19:00 +19°C° 0 mm 1 m/S 630 mmHg 88%
    20:00 +18°C° 0 mm 1 m/S 630 mmHg 90%
    21:00 +16°C° 0 mm 1 m/S 630 mmHg 91%
    22:00 +16°C° 0 mm 1 m/S 631 mmHg 91%
    23:00 +16°C° 0 mm 1 m/S 631 mmHg 91%

    Morgen, 16 Juli, Dienstag

    Zeit Temperatur Niederschläge Wind Luftdruck Luftfeuchtigkeit
    00:00 +15°C° 0 mm 1 m/S 631 mmHg 91%
    01:00 +15°C° 0 mm 1 m/S 631 mmHg 91%
    02:00 +15°C° 0 mm 1 m/S 631 mmHg 92%
    03:00 +15°C° 0 mm 1 m/S 632 mmHg 92%
    04:00 +15°C° 0 mm 1 m/S 631 mmHg 91%
    05:00 +15°C° 0 mm 1 m/S 631 mmHg 89%
    06:00 +15°C° 0 mm 1 m/S 631 mmHg 88%
    07:00 +18°C° 0 mm 1 m/S 632 mmHg 80%
    08:00 +20°C° 0 mm 1 m/S 632 mmHg 72%
    09:00 +22°C° 0 mm 1 m/S 633 mmHg 64%
    10:00 +23°C° 0 mm 1 m/S 633 mmHg 60%
    11:00 +24°C° 0 mm 1 m/S 633 mmHg 57%
    12:00 +25°C° 0 mm 1 m/S 633 mmHg 54%
    13:00 +25°C° 0.2 mm 1 m/S 633 mmHg 55%
    14:00 +25°C° 0.2 mm 2 m/S 633 mmHg 55%
    15:00 +25°C° 0.2 mm 2 m/S 633 mmHg 56%
    16:00 +24°C° 0.3 mm 2 m/S 632 mmHg 63%
    17:00 +24°C° 0.3 mm 2 m/S 632 mmHg 69%
    18:00 +23°C° 0.3 mm 2 m/S 632 mmHg 76%
    19:00 +20°C° 0 mm 2 m/S 632 mmHg 80%
    20:00 +19°C° 0 mm 1 m/S 632 mmHg 84%
    21:00 +16°C° 0 mm 1 m/S 632 mmHg 88%
    22:00 +15°C° 0 mm 1 m/S 631 mmHg 86%
    23:00 +15°C° 0 mm 1 m/S 631 mmHg 85%

    übermorgen, 17 Juli, Mittwoch

    Zeit Temperatur Niederschläge Wind Luftdruck Luftfeuchtigkeit
    00:00 +15°C° 0 mm 1 m/S 631 mmHg 84%
    01:00 +15°C° 0 mm 1 m/S 631 mmHg 84%
    02:00 +14°C° 0 mm 1 m/S 631 mmHg 83%
    03:00 +14°C° 0 mm 1 m/S 631 mmHg 82%
    04:00 +15°C° 0 mm 1 m/S 631 mmHg 82%
    05:00 +16°C° 0 mm 1 m/S 631 mmHg 82%
    06:00 +16°C° 0 mm 1 m/S 632 mmHg 82%
    07:00 +19°C° 0 mm 1 m/S 632 mmHg 77%
    08:00 +21°C° 0 mm 1 m/S 633 mmHg 73%
    09:00 +23°C° 0 mm 2 m/S 633 mmHg 69%
    10:00 +24°C° 0.3 mm 2 m/S 633 mmHg 67%
    11:00 +24°C° 0.3 mm 2 m/S 633 mmHg 65%
    12:00 +25°C° 0.3 mm 2 m/S 633 mmHg 63%
    13:00 +25°C° 0.5 mm 2 m/S 633 mmHg 64%
    14:00 +25°C° 0.5 mm 2 m/S 633 mmHg 64%
    15:00 +26°C° 0.5 mm 2 m/S 632 mmHg 65%
    16:00 +25°C° 0.4 mm 2 m/S 632 mmHg 69%
    17:00 +24°C° 0.4 mm 2 m/S 632 mmHg 74%
    18:00 +23°C° 0.4 mm 2 m/S 632 mmHg 79%
    19:00 +22°C° 0.1 mm 1 m/S 632 mmHg 81%
    20:00 +20°C° 0.1 mm 1 m/S 631 mmHg 84%
    21:00 +18°C° 0.1 mm 1 m/S 631 mmHg 88%
    22:00 +18°C° 0 mm 1 m/S 631 mmHg 89%
    23:00 +16°C° 0 mm 1 m/S 631 mmHg 89%

    18 Juli, Donnerstag

    Zeit Temperatur Niederschläge Wind Luftdruck Luftfeuchtigkeit
    00:00 +16°C° 0 mm 1 m/S 631 mmHg 90%
    01:00 +16°C° 0 mm 1 m/S 631 mmHg 91%
    02:00 +16°C° 0 mm 1 m/S 631 mmHg 92%
    03:00 +15°C° 0 mm 1 m/S 631 mmHg 93%
    04:00 +16°C° 0 mm 1 m/S 631 mmHg 92%
    05:00 +16°C° 0 mm 1 m/S 632 mmHg 92%
    06:00 +18°C° 0 mm 1 m/S 632 mmHg 91%
    07:00 +20°C° 0 mm 1 m/S 632 mmHg 85%
    08:00 +22°C° 0 mm 1 m/S 633 mmHg 80%
    09:00 +23°C° 0 mm 2 m/S 633 mmHg 74%
    10:00 +24°C° 0 mm 2 m/S 633 mmHg 71%
    11:00 +25°C° 0 mm 2 m/S 633 mmHg 67%
    12:00 +26°C° 0 mm 2 m/S 633 mmHg 63%
    13:00 +26°C° 0.2 mm 2 m/S 633 mmHg 63%
    14:00 +27°C° 0.2 mm 2 m/S 633 mmHg 62%
    15:00 +27°C° 0.2 mm 2 m/S 633 mmHg 62%
    16:00 +26°C° 0.3 mm 2 m/S 633 mmHg 68%
    17:00 +25°C° 0.3 mm 2 m/S 633 mmHg 74%
    18:00 +24°C° 0.3 mm 2 m/S 633 mmHg 80%
    19:00 +23°C° 0.3 mm 2 m/S 633 mmHg 83%
    20:00 +21°C° 0.3 mm 1 m/S 633 mmHg 87%
    21:00 +19°C° 0.3 mm 1 m/S 633 mmHg 91%
    22:00 +18°C° 0.1 mm 1 m/S 633 mmHg 91%
    23:00 +18°C° 0.1 mm 1 m/S 633 mmHg 91%

    19 Juli, Freitag

    Zeit Temperatur Niederschläge Wind Luftdruck Luftfeuchtigkeit
    00:00 +18°C° 0.1 mm 1 m/S 633 mmHg 91%
    01:00 +16°C° 0 mm 1 m/S 633 mmHg 91%
    02:00 +16°C° 0 mm 1 m/S 633 mmHg 91%
    03:00 +16°C° 0 mm 1 m/S 633 mmHg 91%
    04:00 +16°C° 0 mm 1 m/S 634 mmHg 91%
    05:00 +18°C° 0 mm 1 m/S 634 mmHg 91%
    06:00 +19°C° 0 mm 1 m/S 634 mmHg 90%
    07:00 +20°C° 0 mm 1 m/S 635 mmHg 85%
    08:00 +22°C° 0 mm 1 m/S 635 mmHg 81%
    09:00 +23°C° 0 mm 2 m/S 636 mmHg 76%
    10:00 +24°C° 0 mm 2 m/S 636 mmHg 74%
    11:00 +25°C° 0 mm 2 m/S 635 mmHg 73%
    12:00 +25°C° 0 mm 3 m/S 635 mmHg 71%
    13:00 +25°C° 0.1 mm 3 m/S 635 mmHg 71%
    14:00 +25°C° 0.1 mm 3 m/S 635 mmHg 72%
    15:00 +26°C° 0.1 mm 3 m/S 635 mmHg 72%
    16:00 +25°C° 0.1 mm 3 m/S 635 mmHg 74%
    17:00 +25°C° 0.1 mm 2 m/S 635 mmHg 77%
    18:00 +24°C° 0.1 mm 2 m/S 635 mmHg 80%
    19:00 +23°C° 0 mm 2 m/S 635 mmHg 82%
    20:00 +20°C° 0 mm 2 m/S 635 mmHg 85%
    21:00 +19°C° 0 mm 1 m/S 635 mmHg 88%
    22:00 +19°C° 0 mm 1 m/S 635 mmHg 88%
    23:00 +19°C° 0 mm 1 m/S 636 mmHg 89%

    20 Juli, Samstag

    Zeit Temperatur Niederschläge Wind Luftdruck Luftfeuchtigkeit
    00:00 +18°C° 0 mm 1 m/S 636 mmHg 89%
    01:00 +18°C° 0 mm 1 m/S 636 mmHg 90%
    02:00 +18°C° 0 mm 1 m/S 636 mmHg 91%
    03:00 +16°C° 0 mm 1 m/S 636 mmHg 91%
    04:00 +18°C° 0 mm 1 m/S 636 mmHg 92%
    05:00 +18°C° 0 mm 1 m/S 636 mmHg 92%
    06:00 +19°C° 0 mm 1 m/S 637 mmHg 92%
    07:00 +20°C° 0 mm 1 m/S 637 mmHg 87%
    08:00 +21°C° 0 mm 2 m/S 637 mmHg 82%
    09:00 +23°C° 0 mm 2 m/S 638 mmHg 77%
    10:00 +24°C° 0 mm 2 m/S 638 mmHg 76%
    11:00 +24°C° 0 mm 2 m/S 638 mmHg 75%
    12:00 +25°C° 0 mm 2 m/S 638 mmHg 74%
    13:00 +25°C° 0 mm 2 m/S 638 mmHg 74%
    14:00 +26°C° 0 mm 2 m/S 637 mmHg 73%
    15:00 +26°C° 0 mm 2 m/S 637 mmHg 73%
    16:00 +26°C° 0 mm 2 m/S 637 mmHg 75%
    17:00 +25°C° 0 mm 2 m/S 637 mmHg 78%
    18:00 +25°C° 0 mm 2 m/S 637 mmHg 81%
    19:00 +23°C° 0 mm 2 m/S 637 mmHg 84%
    20:00 +21°C° 0 mm 2 m/S 637 mmHg 86%
    21:00 +20°C° 0 mm 1 m/S 637 mmHg 89%
    22:00 +20°C° 0 mm 1 m/S 637 mmHg 88%
    23:00 +19°C° 0 mm 1 m/S 637 mmHg 87%
    Mehr zeigen